Time,TemperatureF,DewpointF,PressureIn,WindDirection,WindDirectionDegrees,WindSpeedMPH,WindSpeedGustMPH,Humidity,HourlyPrecipIn,Conditions,Clouds,dailyrainin,SolarRadiationWatts/m^2,SoftwareType,DateUTC
2013-06-05 00:03:00,75.0,59.0,-100.00,North,8,14.0,30.0,57,0.00,,,0.00,0.000000,,2013-06-05 10:03:00,
2013-06-05 00:12:00,75.0,59.0,-100.00,North,8,14.0,30.0,57,0.00,,,0.00,0.000000,,2013-06-05 10:12:00,
2013-06-05 00:22:00,75.0,59.0,-100.00,North,8,14.0,30.0,57,0.00,,,0.00,0.000000,,2013-06-05 10:22:00,
2013-06-05 00:33:00,75.0,59.0,-100.00,North,8,14.0,30.0,57,0.00,,,0.00,0.000000,,2013-06-05 10:33:00,
2013-06-05 00:42:00,75.0,59.0,-100.00,North,8,14.0,30.0,57,0.00,,,0.00,0.000000,,2013-06-05 10:42:00,
2013-06-05 01:02:00,72.0,62.0,-100.00,NNE,24,13.0,26.0,71,0.00,,,0.00,0.000000,,2013-06-05 11:02:00,
2013-06-05 01:12:00,72.0,62.0,-100.00,NNE,24,13.0,26.0,71,0.00,,,0.00,0.000000,,2013-06-05 11:12:00,
2013-06-05 01:22:00,72.0,62.0,-100.00,NNE,24,13.0,26.0,71,0.00,,,0.00,0.000000,,2013-06-05 11:22:00,
2013-06-05 01:32:00,72.0,62.0,-100.00,NNE,24,13.0,26.0,71,0.00,,,0.00,0.000000,,2013-06-05 11:32:00,
2013-06-05 01:42:00,72.0,62.0,-100.00,NNE,24,13.0,26.0,71,0.00,,,0.00,0.000000,,2013-06-05 11:42:00,
2013-06-05 02:02:00,74.0,60.0,-100.00,NNE,15,16.0,28.0,61,0.00,,,0.00,0.000000,,2013-06-05 12:02:00,
2013-06-05 02:12:00,74.0,60.0,-100.00,NNE,15,16.0,28.0,61,0.00,,,0.00,0.000000,,2013-06-05 12:12:00,
2013-06-05 02:22:00,74.0,60.0,-100.00,NNE,15,16.0,28.0,61,0.00,,,0.00,0.000000,,2013-06-05 12:22:00,
2013-06-05 02:32:00,74.0,60.0,-100.00,NNE,15,16.0,28.0,61,0.00,,,0.00,0.000000,,2013-06-05 12:32:00,
2013-06-05 02:43:00,74.0,60.0,-100.00,NNE,15,16.0,28.0,61,0.00,,,0.00,0.000000,,2013-06-05 12:43:00,
2013-06-05 03:02:00,74.0,59.0,-100.00,North,356,16.0,27.0,59,0.00,,,0.00,0.000000,,2013-06-05 13:02:00,
2013-06-05 03:12:00,74.0,59.0,-100.00,North,356,16.0,27.0,59,0.00,,,0.00,0.000000,,2013-06-05 13:12:00,
2013-06-05 03:22:00,74.0,59.0,-100.00,North,356,16.0,27.0,59,0.00,,,0.00,0.000000,,2013-06-05 13:22:00,
2013-06-05 03:32:00,74.0,59.0,-100.00,North,356,16.0,27.0,59,0.00,,,0.00,0.000000,,2013-06-05 13:32:00,
2013-06-05 03:42:00,74.0,59.0,-100.00,North,356,16.0,27.0,59,0.00,,,0.00,0.000000,,2013-06-05 13:42:00,
2013-06-05 04:02:00,74.0,58.0,-100.00,NE,44,12.0,25.0,58,0.00,,,0.00,0.000000,,2013-06-05 14:02:00,
2013-06-05 04:12:00,74.0,58.0,-100.00,NE,44,12.0,25.0,58,0.00,,,0.00,0.000000,,2013-06-05 14:12:00,
2013-06-05 04:22:00,74.0,58.0,-100.00,NE,44,12.0,25.0,58,0.00,,,0.00,0.000000,,2013-06-05 14:22:00,
2013-06-05 04:32:00,74.0,58.0,-100.00,NE,44,12.0,25.0,58,0.00,,,0.00,0.000000,,2013-06-05 14:32:00,
2013-06-05 04:42:00,74.0,58.0,-100.00,NE,44,12.0,25.0,58,0.00,,,0.00,0.000000,,2013-06-05 14:42:00,
2013-06-05 05:02:00,75.0,60.0,-100.00,NE,54,12.0,19.0,60,0.00,,,0.00,0.000000,,2013-06-05 15:02:00,
2013-06-05 05:12:00,75.0,60.0,-100.00,NE,54,12.0,19.0,60,0.00,,,0.00,0.000000,,2013-06-05 15:12:00,
2013-06-05 05:22:00,75.0,60.0,-100.00,NE,54,12.0,19.0,60,0.00,,,0.00,0.000000,,2013-06-05 15:22:00,
2013-06-05 05:33:00,75.0,60.0,-100.00,NE,54,12.0,19.0,60,0.00,,,0.00,0.000000,,2013-06-05 15:33:00,
2013-06-05 05:42:00,75.0,60.0,-100.00,NE,54,12.0,19.0,60,0.00,,,0.00,0.000000,,2013-06-05 15:42:00,
2013-06-05 06:03:00,75.0,60.0,-100.00,North,11,17.0,25.0,59,0.00,,,0.00,0.000000,,2013-06-05 16:03:00,
2013-06-05 06:12:00,75.0,60.0,-100.00,North,11,17.0,25.0,59,0.00,,,0.00,0.000000,,2013-06-05 16:12:00,
2013-06-05 06:22:00,75.0,60.0,-100.00,North,11,17.0,25.0,59,0.00,,,0.00,0.000000,,2013-06-05 16:22:00,
2013-06-05 06:32:00,75.0,60.0,-100.00,North,11,17.0,25.0,59,0.00,,,0.00,0.000000,,2013-06-05 16:32:00,
2013-06-05 06:42:00,75.0,60.0,-100.00,North,11,17.0,25.0,59,0.00,,,0.00,0.000000,,2013-06-05 16:42:00,
2013-06-05 07:12:00,76.0,60.0,-100.00,North,5,19.0,25.0,58,0.00,,,0.00,90.000000,,2013-06-05 17:12:00,
2013-06-05 07:22:00,76.0,60.0,-100.00,North,5,19.0,25.0,58,0.00,,,0.00,90.000000,,2013-06-05 17:22:00,
2013-06-05 07:32:00,76.0,60.0,-100.00,North,5,19.0,25.0,58,0.00,,,0.00,90.000000,,2013-06-05 17:32:00,
2013-06-05 07:42:00,76.0,60.0,-100.00,North,5,19.0,25.0,58,0.00,,,0.00,90.000000,,2013-06-05 17:42:00,
2013-06-05 08:02:00,79.0,57.0,-100.00,NNE,14,16.0,27.0,47,0.00,,,0.00,334.000000,,2013-06-05 18:02:00,
2013-06-05 08:12:00,79.0,57.0,-100.00,NNE,14,16.0,27.0,47,0.00,,,0.00,334.000000,,2013-06-05 18:12:00,
2013-06-05 08:22:00,79.0,57.0,-100.00,NNE,14,16.0,27.0,47,0.00,,,0.00,334.000000,,2013-06-05 18:22:00,
2013-06-05 08:32:00,79.0,57.0,-100.00,NNE,14,16.0,27.0,47,0.00,,,0.00,334.000000,,2013-06-05 18:32:00,
2013-06-05 08:42:00,79.0,57.0,-100.00,NNE,14,16.0,27.0,47,0.00,,,0.00,334.000000,,2013-06-05 18:42:00,
2013-06-05 09:02:00,83.0,58.0,-100.00,NNE,16,16.0,25.0,42,0.00,,,0.00,595.000000,,2013-06-05 19:02:00,
2013-06-05 09:12:00,83.0,58.0,-100.00,NNE,16,16.0,25.0,42,0.00,,,0.00,595.000000,,2013-06-05 19:12:00,
2013-06-05 09:23:00,83.0,58.0,-100.00,NNE,16,16.0,25.0,42,0.00,,,0.00,595.000000,,2013-06-05 19:23:00,
2013-06-05 09:32:00,83.0,58.0,-100.00,NNE,16,16.0,25.0,42,0.00,,,0.00,595.000000,,2013-06-05 19:32:00,
2013-06-05 09:42:00,83.0,58.0,-100.00,NNE,16,16.0,25.0,42,0.00,,,0.00,595.000000,,2013-06-05 19:42:00,
2013-06-05 10:02:00,86.0,57.0,-100.00,NNE,29,17.0,25.0,37,0.00,,,0.00,847.000000,,2013-06-05 20:02:00,
2013-06-05 10:12:00,86.0,57.0,-100.00,NNE,29,17.0,25.0,37,0.00,,,0.00,847.000000,,2013-06-05 20:12:00,
2013-06-05 10:22:00,86.0,57.0,-100.00,NNE,29,17.0,25.0,37,0.00,,,0.00,847.000000,,2013-06-05 20:22:00,
2013-06-05 10:32:00,86.0,57.0,-100.00,NNE,29,17.0,25.0,37,0.00,,,0.00,847.000000,,2013-06-05 20:32:00,
2013-06-05 10:42:00,86.0,57.0,-100.00,NNE,29,17.0,25.0,37,0.00,,,0.00,847.000000,,2013-06-05 20:42:00,
2013-06-05 11:02:00,89.0,59.0,-100.00,NNE,20,17.0,26.0,36,0.00,,,0.00,1010.000000,,2013-06-05 21:02:00,
2013-06-05 11:12:00,89.0,59.0,-100.00,NNE,20,17.0,26.0,36,0.00,,,0.00,1010.000000,,2013-06-05 21:12:00,
2013-06-05 11:22:00,89.0,59.0,-100.00,NNE,20,17.0,26.0,36,0.00,,,0.00,1010.000000,,2013-06-05 21:22:00,
2013-06-05 11:33:00,89.0,59.0,-100.00,NNE,20,17.0,26.0,36,0.00,,,0.00,1010.000000,,2013-06-05 21:33:00,
2013-06-05 11:43:00,89.0,59.0,-100.00,NNE,20,17.0,26.0,36,0.00,,,0.00,1010.000000,,2013-06-05 21:43:00,
2013-06-05 12:12:00,80.0,64.0,-100.00,East,87,23.0,28.0,59,0.00,,,0.00,701.000000,,2013-06-05 22:12:00,
2013-06-05 12:22:00,80.0,64.0,-100.00,East,87,23.0,28.0,59,0.00,,,0.00,701.000000,,2013-06-05 22:22:00,
2013-06-05 12:32:00,80.0,64.0,-100.00,East,87,23.0,28.0,59,0.00,,,0.00,701.000000,,2013-06-05 22:32:00,
2013-06-05 12:42:00,80.0,64.0,-100.00,East,87,23.0,28.0,59,0.00,,,0.00,701.000000,,2013-06-05 22:42:00,
2013-06-05 13:02:00,84.0,69.0,-100.00,ENE,78,21.0,35.0,60,0.00,,,0.00,1044.000000,,2013-06-05 23:02:00,
2013-06-05 13:12:00,84.0,69.0,-100.00,ENE,78,21.0,35.0,60,0.00,,,0.00,1044.000000,,2013-06-05 23:12:00,
2013-06-05 13:22:00,84.0,69.0,-100.00,ENE,78,21.0,35.0,60,0.00,,,0.00,1044.000000,,2013-06-05 23:22:00,
2013-06-05 13:32:00,84.0,69.0,-100.00,ENE,78,21.0,35.0,60,0.00,,,0.00,1044.000000,,2013-06-05 23:32:00,
2013-06-05 13:42:00,84.0,69.0,-100.00,ENE,78,21.0,35.0,60,0.00,,,0.00,1044.000000,,2013-06-05 23:42:00,
2013-06-05 14:02:00,87.0,61.0,-100.00,NE,39,20.0,33.0,42,0.00,,,0.00,1060.000000,,2013-06-06 00:02:00,
2013-06-05 14:12:00,87.0,61.0,-100.00,NE,39,20.0,33.0,42,0.00,,,0.00,1060.000000,,2013-06-06 00:12:00,
2013-06-05 14:22:00,87.0,61.0,-100.00,NE,39,20.0,33.0,42,0.00,,,0.00,1060.000000,,2013-06-06 00:22:00,
2013-06-05 14:32:00,87.0,61.0,-100.00,NE,39,20.0,33.0,42,0.00,,,0.00,1060.000000,,2013-06-06 00:32:00,
2013-06-05 14:42:00,87.0,61.0,-100.00,NE,39,20.0,33.0,42,0.00,,,0.00,1060.000000,,2013-06-06 00:42:00,
2013-06-05 15:02:00,87.0,62.0,-100.00,NE,39,21.0,30.0,44,0.00,,,0.00,1057.000000,,2013-06-06 01:02:00,
2013-06-05 15:12:00,87.0,62.0,-100.00,NE,39,21.0,30.0,44,0.00,,,0.00,1057.000000,,2013-06-06 01:12:00,
2013-06-05 15:22:00,87.0,62.0,-100.00,NE,39,21.0,30.0,44,0.00,,,0.00,1057.000000,,2013-06-06 01:22:00,
2013-06-05 15:32:00,87.0,62.0,-100.00,NE,39,21.0,30.0,44,0.00,,,0.00,1057.000000,,2013-06-06 01:32:00,
2013-06-05 15:42:00,87.0,62.0,-100.00,NE,39,21.0,30.0,44,0.00,,,0.00,1057.000000,,2013-06-06 01:42:00,
2013-06-05 16:02:00,84.0,62.0,-100.00,ENE,78,20.0,30.0,48,0.00,,,0.00,791.000000,,2013-06-06 02:02:00,
2013-06-05 16:12:00,84.0,62.0,-100.00,ENE,78,20.0,30.0,48,0.00,,,0.00,791.000000,,2013-06-06 02:12:00,
2013-06-05 16:22:00,84.0,62.0,-100.00,ENE,78,20.0,30.0,48,0.00,,,0.00,791.000000,,2013-06-06 02:22:00,
2013-06-05 16:32:00,84.0,62.0,-100.00,ENE,78,20.0,30.0,48,0.00,,,0.00,791.000000,,2013-06-06 02:32:00,
2013-06-05 16:42:00,84.0,62.0,-100.00,ENE,78,20.0,30.0,48,0.00,,,0.00,791.000000,,2013-06-06 02:42:00,
2013-06-05 17:02:00,84.0,62.0,-100.00,ENE,60,19.0,30.0,47,0.00,,,0.00,226.000000,,2013-06-06 03:02:00,
2013-06-05 17:12:00,84.0,62.0,-100.00,ENE,60,19.0,30.0,47,0.00,,,0.00,226.000000,,2013-06-06 03:12:00,
2013-06-05 17:22:00,84.0,62.0,-100.00,ENE,60,19.0,30.0,47,0.00,,,0.00,226.000000,,2013-06-06 03:22:00,
2013-06-05 17:33:00,84.0,62.0,-100.00,ENE,60,19.0,30.0,47,0.00,,,0.00,226.000000,,2013-06-06 03:33:00,
2013-06-05 17:43:00,84.0,62.0,-100.00,ENE,60,19.0,30.0,47,0.00,,,0.00,226.000000,,2013-06-06 03:43:00,
2013-06-05 18:03:00,81.0,61.0,-100.00,ENE,60,21.0,30.0,51,0.00,,,0.00,68.000000,,2013-06-06 04:03:00,
2013-06-05 18:13:00,81.0,61.0,-100.00,ENE,60,21.0,30.0,51,0.00,,,0.00,68.000000,,2013-06-06 04:13:00,
2013-06-05 18:23:00,81.0,61.0,-100.00,ENE,60,21.0,30.0,51,0.00,,,0.00,68.000000,,2013-06-06 04:23:00,
2013-06-05 18:33:00,81.0,61.0,-100.00,ENE,60,21.0,30.0,51,0.00,,,0.00,68.000000,,2013-06-06 04:33:00,
2013-06-05 18:42:00,81.0,61.0,-100.00,ENE,60,21.0,30.0,51,0.00,,,0.00,68.000000,,2013-06-06 04:42:00,
2013-06-05 19:02:00,77.0,60.0,-100.00,NE,52,19.0,29.0,56,0.00,,,0.00,41.000000,,2013-06-06 05:02:00,
2013-06-05 19:12:00,77.0,60.0,-100.00,NE,52,19.0,29.0,56,0.00,,,0.00,41.000000,,2013-06-06 05:12:00,
2013-06-05 19:22:00,77.0,60.0,-100.00,NE,52,19.0,29.0,56,0.00,,,0.00,41.000000,,2013-06-06 05:22:00,
2013-06-05 19:32:00,77.0,60.0,-100.00,NE,52,19.0,29.0,56,0.00,,,0.00,41.000000,,2013-06-06 05:32:00,
2013-06-05 19:42:00,77.0,60.0,-100.00,NE,52,19.0,29.0,56,0.00,,,0.00,41.000000,,2013-06-06 05:42:00,
2013-06-05 20:12:00,77.0,61.0,-100.00,NE,50,16.0,28.0,58,0.00,,,0.00,2.000000,,2013-06-06 06:12:00,
2013-06-05 20:22:00,77.0,61.0,-100.00,NE,50,16.0,28.0,58,0.00,,,0.00,2.000000,,2013-06-06 06:22:00,
2013-06-05 20:32:00,77.0,61.0,-100.00,NE,50,16.0,28.0,58,0.00,,,0.00,2.000000,,2013-06-06 06:32:00,
2013-06-05 20:42:00,77.0,61.0,-100.00,NE,50,16.0,28.0,58,0.00,,,0.00,2.000000,,2013-06-06 06:42:00,
2013-06-05 21:02:00,75.0,60.0,-100.00,NE,41,15.0,23.0,60,0.00,,,0.00,0.000000,,2013-06-06 07:02:00,
2013-06-05 21:12:00,75.0,60.0,-100.00,NE,41,15.0,23.0,60,0.00,,,0.00,0.000000,,2013-06-06 07:12:00,
2013-06-05 21:22:00,75.0,60.0,-100.00,NE,41,15.0,23.0,60,0.00,,,0.00,0.000000,,2013-06-06 07:22:00,
2013-06-05 21:32:00,75.0,60.0,-100.00,NE,41,15.0,23.0,60,0.00,,,0.00,0.000000,,2013-06-06 07:32:00,
2013-06-05 21:42:00,75.0,60.0,-100.00,NE,41,15.0,23.0,60,0.00,,,0.00,0.000000,,2013-06-06 07:42:00,
2013-06-05 22:02:00,76.0,62.0,-100.00,NE,41,11.0,22.0,62,0.00,,,0.00,0.000000,,2013-06-06 08:02:00,
2013-06-05 22:12:00,76.0,62.0,-100.00,NE,41,11.0,22.0,62,0.00,,,0.00,0.000000,,2013-06-06 08:12:00,
2013-06-05 22:22:00,76.0,62.0,-100.00,NE,41,11.0,22.0,62,0.00,,,0.00,0.000000,,2013-06-06 08:22:00,
2013-06-05 22:32:00,76.0,62.0,-100.00,NE,41,11.0,22.0,62,0.00,,,0.00,0.000000,,2013-06-06 08:32:00,
2013-06-05 22:42:00,76.0,62.0,-100.00,NE,41,11.0,22.0,62,0.00,,,0.00,0.000000,,2013-06-06 08:42:00,
2013-06-05 23:02:00,76.0,62.0,-100.00,NE,37,14.0,19.0,63,0.00,,,0.00,0.000000,,2013-06-06 09:02:00,
2013-06-05 23:12:00,76.0,62.0,-100.00,NE,37,14.0,19.0,63,0.00,,,0.00,0.000000,,2013-06-06 09:12:00,
2013-06-05 23:22:00,76.0,62.0,-100.00,NE,37,14.0,19.0,63,0.00,,,0.00,0.000000,,2013-06-06 09:22:00,
2013-06-05 23:33:00,76.0,62.0,-100.00,NE,37,14.0,19.0,63,0.00,,,0.00,0.000000,,2013-06-06 09:33:00,
2013-06-05 23:43:00,76.0,62.0,-100.00,NE,37,14.0,19.0,63,0.00,,,0.00,0.000000,,2013-06-06 09:43:00,